Location: Napier
(39.4830°S, 176.9170°E)
Time: 03:21:16
(UTC+12:00)

Cosmos 1633 Rocket - Pass Details

Date: 15 August 2020
Orbit: 606 x 624 km, 82.5° (Epoch: 19 September)

Event Time Altitude Azimuth Distance (km) Brightness Sun altitude
Rises 19:47:40 0° 192° (SSW) 2,933 6.7 -26.2°
Reaches altitude 10° 19:49:56 10° 196° (SSW) 2,021 5.9 -26.7°
Maximum altitude 19:54:20 58° 274° (W) 742 3.6 -27.5°
Enters shadow 19:54:34 57° 289° (WNW) 748 3.6 -27.5°
